Private Wetterstation Wechselburg
Wetterdaten: Freitag, 02.11.2012
Datum Zeit Temp. +2m Bodentemp. Temp.+5cm Temp. Wind Windchill X Diff Temp. Feuchte +2m Feuchte +5cm Sonnenschein Luftdruck Regen Wind Richtung Richtung Sonnenschein UV Taupunkt Windchill Windben
02.11.2012 00:00 9,1 C 12,2 C 8,0 C 8,9 C 8,5 C 0,0 C 78 % 88 % 0 % 995,3 hPa 0,0 l/m 4,5 km/h (1 Bft) SW 225 0 min 0,0 UV-I 5,5 C 8,5 C 5,3 km/h (1 Bft)
02.11.2012 00:05 9,1 C 12,2 C 8,1 C 8,9 C 8,6 C 0,0 C 78 % 88 % 0 % 995,3 hPa 0,0 l/m 4,3 km/h (1 Bft) S 180 0 min 0,0 UV-I 5,5 C 8,6 C 6,0 km/h (2 Bft)
02.11.2012 00:10 9,1 C 12,2 C 8,0 C 8,9 C 8,6 C 0,0 C 77 % 88 % 0 % 995,3 hPa 0,0 l/m 4,2 km/h (1 Bft) NO 45 0 min 0,0 UV-I 5,3 C 8,6 C 4,7 km/h (1 Bft)
02.11.2012 00:15 9,1 C 12,2 C 8,0 C 9,0 C 8,7 C 0,0 C 77 % 87 % 0 % 995,3 hPa 0,0 l/m 3,7 km/h (1 Bft) W-SW 247 0 min 0,0 UV-I 5,3 C 8,7 C 10,1 km/h (2 Bft)
02.11.2012 00:20 9,0 C 12,2 C 7,9 C 8,9 C 8,6 C 0,0 C 78 % 87 % 0 % 995,3 hPa 0,0 l/m 3,5 km/h (1 Bft) SO 135 0 min 0,0 UV-I 5,4 C 8,6 C 5,1 km/h (1 Bft)
02.11.2012 00:25 8,9 C 12,2 C 7,7 C 8,7 C 8,3 C 0,0 C 77 % 87 % 0 % 995,3 hPa 0,0 l/m 2,3 km/h (1 Bft) S 180 0 min 0,0 UV-I 5,1 C 8,3 C 4,5 km/h (1 Bft)
02.11.2012 00:30 8,8 C 12,2 C 7,7 C 8,6 C 8,1 C 0,0 C 77 % 87 % 0 % 995,3 hPa 0,0 l/m 1,9 km/h (1 Bft) SW 225 0 min 0,0 UV-I 5,0 C 8,1 C 4,2 km/h (1 Bft)
02.11.2012 00:35 8,5 C 12,2 C 7,4 C 8,3 C 7,8 C 0,0 C 78 % 87 % 0 % 995,3 hPa 0,0 l/m 1,8 km/h (1 Bft) N-NW 337 0 min 0,0 UV-I 4,9 C 7,8 C 0,0 km/h (0 Bft)
02.11.2012 00:41 8,5 C 12,2 C 7,4 C 8,2 C 7,7 C 0,0 C 78 % 87 % 0 % 995,2 hPa 0,0 l/m 1,4 km/h (1 Bft) N 0 0 min 0,0 UV-I 4,9 C 7,7 C 4,3 km/h (1 Bft)
02.11.2012 00:55 8,3 C 12,2 C 7,2 C 8,0 C 7,4 C 0,0 C 78 % 87 % 0 % 995,2 hPa 0,0 l/m 1,0 km/h (0 Bft) NO 45 0 min 0,0 UV-I 4,7 C 7,4 C 2,7 km/h (1 Bft)
02.11.2012 01:00 8,0 C 12,2 C 7,1 C 7,8 C 7,3 C 0,0 C 78 % 87 % 0 % 995,7 hPa 0,0 l/m 0,6 km/h (0 Bft) S 180 0 min 0,0 UV-I 4,4 C 7,3 C 0,0 km/h (0 Bft)
02.11.2012 01:05 8,0 C 12,2 C 7,0 C 7,7 C 7,2 C 0,0 C 79 % 87 % 0 % 995,7 hPa 0,0 l/m 1,0 km/h (0 Bft) O-SO 112 0 min 0,0 UV-I 4,6 C 7,2 C 0,0 km/h (0 Bft)
02.11.2012 01:10 7,9 C 12,2 C 7,1 C 7,6 C 7,1 C 0,0 C 79 % 87 % 0 % 995,7 hPa 0,0 l/m 0,6 km/h (0 Bft) NW 315 0 min 0,0 UV-I 4,5 C 7,1 C 0,0 km/h (0 Bft)
02.11.2012 01:15 7,7 C 12,2 C 6,8 C 7,4 C 6,9 C 0,0 C 79 % 87 % 0 % 995,7 hPa 0,0 l/m 0,3 km/h (0 Bft) SW 225 0 min 0,0 UV-I 4,3 C 6,9 C 1,9 km/h (1 Bft)
02.11.2012 01:20 7,7 C 12,2 C 6,8 C 7,4 C 6,9 C 0,0 C 79 % 87 % 0 % 995,8 hPa 0,0 l/m 0,5 km/h (0 Bft) O-NO 67 0 min 0,0 UV-I 4,3 C 6,9 C 0,0 km/h (0 Bft)
02.11.2012 01:25 7,7 C 12,2 C 6,7 C 7,4 C 6,8 C 0,0 C 79 % 88 % 0 % 995,8 hPa 0,0 l/m 1,0 km/h (0 Bft) S-SW 202 0 min 0,0 UV-I 4,3 C 6,8 C 0,0 km/h (0 Bft)
02.11.2012 01:30 7,5 C 12,2 C 6,5 C 7,2 C 6,7 C 0,0 C 79 % 88 % 0 % 995,8 hPa 0,0 l/m 0,6 km/h (0 Bft) O-NO 67 0 min 0,0 UV-I 4,1 C 6,7 C 0,0 km/h (0 Bft)
02.11.2012 01:35 7,3 C 12,2 C 6,4 C 7,0 C 6,5 C 0,0 C 79 % 87 % 0 % 995,8 hPa 0,0 l/m 0,3 km/h (0 Bft) S-SO 157 0 min 0,0 UV-I 3,9 C 6,5 C 2,4 km/h (1 Bft)
02.11.2012 01:40 7,2 C 12,2 C 6,3 C 6,9 C 6,4 C 0,0 C 79 % 88 % 0 % 996,4 hPa 0,0 l/m 0,2 km/h (0 Bft) S-SW 202 0 min 0,0 UV-I 3,8 C 6,4 C 0,0 km/h (0 Bft)
02.11.2012 01:45 7,1 C 12,3 C 6,2 C 6,9 C 6,4 C 0,0 C 79 % 88 % 0 % 996,4 hPa 0,0 l/m 0,2 km/h (0 Bft) S-SW 202 0 min 0,0 UV-I 3,7 C 6,4 C 0,0 km/h (0 Bft)
02.11.2012 01:50 7,0 C 12,3 C 6,2 C 6,8 C 6,4 C 0,0 C 80 % 88 % 0 % 996,4 hPa 0,0 l/m 0,2 km/h (0 Bft) O 90 0 min 0,0 UV-I 3,8 C 6,4 C 0,0 km/h (0 Bft)
02.11.2012 01:55 6,9 C 12,3 C 6,1 C 6,7 C 6,4 C 0,0 C 80 % 88 % 0 % 996,4 hPa 0,0 l/m 0,0 km/h (0 Bft) W-SW 247 0 min 0,0 UV-I 3,7 C 6,4 C 0,0 km/h (0 Bft)
02.11.2012 02:00 6,7 C 12,3 C 6,1 C 6,6 C 6,4 C 0,0 C 80 % 88 % 0 % 995,9 hPa 0,0 l/m 0,0 km/h (0 Bft) O 90 0 min 0,0 UV-I 3,5 C 6,4 C 0,0 km/h (0 Bft)
02.11.2012 02:05 6,6 C 12,3 C 5,9 C 6,4 C 6,1 C 0,0 C 80 % 88 % 0 % 995,9 hPa 0,0 l/m 0,0 km/h (0 Bft) S-SO 157 0 min 0,0 UV-I 3,4 C 6,1 C 0,0 km/h (0 Bft)
02.11.2012 02:10 6,4 C 12,3 C 5,8 C 6,3 C 6,2 C 0,0 C 81 % 89 % 0 % 995,9 hPa 0,0 l/m 0,0 km/h (0 Bft) O-NO 67 0 min 0,0 UV-I 3,4 C 6,2 C 0,0 km/h (0 Bft)
02.11.2012 02:15 6,3 C 12,3 C 6,0 C 6,4 C 6,4 C 0,1 C 82 % 89 % 0 % 995,9 hPa 0,0 l/m 0,0 km/h (0 Bft) W-SW 247 0 min 0,0 UV-I 3,5 C 6,4 C 0,0 km/h (0 Bft)
02.11.2012 02:20 6,3 C 12,3 C 6,1 C 6,5 C 6,5 C 0,2 C 82 % 89 % 0 % 996,8 hPa 0,0 l/m 0,0 km/h (0 Bft) W-NW 292 0 min 0,0 UV-I 3,5 C 6,5 C 0,0 km/h (0 Bft)
02.11.2012 02:25 6,2 C 12,3 C 6,0 C 6,7 C 6,7 C 0,5 C 82 % 89 % 0 % 996,8 hPa 0,0 l/m 0,0 km/h (0 Bft) W 270 0 min 0,0 UV-I 3,4 C 6,7 C 2,1 km/h (1 Bft)
02.11.2012 02:30 6,3 C 12,3 C 6,4 C 6,9 C 6,9 C 0,6 C 82 % 90 % 0 % 996,8 hPa 0,0 l/m 0,2 km/h (0 Bft) NW 315 0 min 0,0 UV-I 3,5 C 6,9 C 0,0 km/h (0 Bft)
02.11.2012 02:35 6,5 C 12,3 C 6,7 C 7,4 C 7,4 C 0,9 C 82 % 90 % 0 % 996,8 hPa 0,0 l/m 1,3 km/h (1 Bft) SO 135 0 min 0,0 UV-I 3,7 C 7,4 C 2,3 km/h (1 Bft)
02.11.2012 02:40 6,6 C 12,3 C 6,7 C 7,5 C 7,5 C 0,9 C 82 % 90 % 0 % 996,6 hPa 0,0 l/m 1,8 km/h (1 Bft) S-SW 202 0 min 0,0 UV-I 3,8 C 7,5 C 0,0 km/h (0 Bft)
02.11.2012 02:45 6,8 C 12,3 C 6,9 C 7,7 C 7,7 C 0,9 C 82 % 89 % 0 % 996,6 hPa 0,0 l/m 1,8 km/h (1 Bft) SW 225 0 min 0,0 UV-I 3,9 C 7,7 C 0,0 km/h (0 Bft)
02.11.2012 02:50 6,8 C 12,3 C 6,9 C 7,6 C 7,6 C 0,8 C 82 % 89 % 0 % 996,6 hPa 0,0 l/m 3,2 km/h (1 Bft) W-SW 247 0 min 0,0 UV-I 3,9 C 7,6 C 9,2 km/h (2 Bft)
02.11.2012 02:55 7,1 C 12,3 C 6,9 C 7,0 C 6,9 C 0,0 C 83 % 90 % 0 % 996,6 hPa 0,0 l/m 5,8 km/h (2 Bft) S 180 0 min 0,0 UV-I 4,4 C 6,0 C 10,8 km/h (2 Bft)
02.11.2012 03:00 7,2 C 12,3 C 7,1 C 7,1 C 6,8 C 0,0 C 82 % 90 % 0 % 996,9 hPa 0,0 l/m 6,9 km/h (2 Bft) W-SW 247 0 min 0,0 UV-I 4,3 C 5,5 C 6,1 km/h (2 Bft)
02.11.2012 03:05 7,4 C 12,3 C 7,2 C 7,2 C 6,8 C 0,0 C 82 % 90 % 0 % 996,9 hPa 0,0 l/m 7,1 km/h (2 Bft) W-NW 292 0 min 0,0 UV-I 4,5 C 5,5 C 11,9 km/h (2 Bft)
02.11.2012 03:10 7,2 C 12,5 C 7,2 C 7,2 C 6,6 C 0,0 C 83 % 90 % 0 % 996,9 hPa 0,0 l/m 8,4 km/h (2 Bft) SW 225 0 min 0,0 UV-I 4,5 C 4,9 C 12,2 km/h (2 Bft)
02.11.2012 03:15 7,1 C 12,6 C 7,1 C 7,0 C 5,7 C 0,0 C 84 % 90 % 0 % 996,9 hPa 0,0 l/m 10,9 km/h (2 Bft) W-SW 247 0 min 0,0 UV-I 4,6 C 3,3 C 22,4 km/h (4 Bft)
02.11.2012 03:20 7,1 C 12,6 C 7,1 C 6,8 C 5,2 C 0,0 C 84 % 91 % 0 % 997,5 hPa 0,0 l/m 12,2 km/h (2 Bft) S-SW 202 0 min 0,0 UV-I 4,6 C 2,5 C 12,4 km/h (3 Bft)
02.11.2012 03:25 6,9 C 12,6 C 6,9 C 6,6 C 5,4 C 0,0 C 84 % 92 % 0 % 997,5 hPa 0,0 l/m 9,7 km/h (2 Bft) NW 315 0 min 0,0 UV-I 4,4 C 3,2 C 4,0 km/h (1 Bft)
02.11.2012 03:30 6,8 C 12,6 C 6,9 C 6,6 C 6,1 C 0,0 C 84 % 92 % 0 % 997,5 hPa 0,0 l/m 6,8 km/h (2 Bft) SO 135 0 min 0,0 UV-I 4,3 C 4,7 C 4,3 km/h (1 Bft)
02.11.2012 03:35 6,7 C 12,5 C 6,8 C 6,6 C 6,3 C 0,0 C 84 % 92 % 0 % 997,5 hPa 0,0 l/m 4,7 km/h (1 Bft) W-SW 247 0 min 0,0 UV-I 4,2 C 5,7 C 12,6 km/h (3 Bft)
02.11.2012 03:40 6,6 C 12,6 C 6,8 C 6,6 C 6,5 C 0,0 C 84 % 92 % 0 % 997,8 hPa 0,0 l/m 4,2 km/h (1 Bft) S-SW 202 0 min 0,0 UV-I 4,1 C 6,5 C 2,9 km/h (1 Bft)
02.11.2012 03:45 6,7 C 12,5 C 6,7 C 6,7 C 6,6 C 0,0 C 84 % 92 % 0 % 997,8 hPa 0,0 l/m 3,7 km/h (1 Bft) SW 225 0 min 0,0 UV-I 4,2 C 6,6 C 3,1 km/h (1 Bft)
02.11.2012 03:50 6,6 C 12,5 C 6,7 C 6,6 C 6,6 C 0,0 C 84 % 93 % 0 % 997,8 hPa 0,0 l/m 3,7 km/h (1 Bft) W-SW 247 0 min 0,0 UV-I 4,1 C 6,6 C 4,8 km/h (1 Bft)
02.11.2012 03:55 6,5 C 12,5 C 6,6 C 6,4 C 6,3 C 0,0 C 84 % 93 % 0 % 997,8 hPa 0,0 l/m 4,0 km/h (1 Bft) W 270 0 min 0,0 UV-I 4,0 C 6,3 C 2,6 km/h (1 Bft)
02.11.2012 04:00 6,5 C 12,5 C 6,7 C 6,4 C 6,2 C 0,0 C 84 % 93 % 0 % 997,8 hPa 0,0 l/m 4,0 km/h (1 Bft) W-NW 292 0 min 0,0 UV-I 4,0 C 6,2 C 2,6 km/h (1 Bft)
02.11.2012 04:05 6,5 C 12,5 C 6,7 C 6,5 C 6,4 C 0,0 C 83 % 93 % 0 % 997,8 hPa 0,0 l/m 3,1 km/h (1 Bft) S 180 0 min 0,0 UV-I 3,8 C 6,4 C 5,8 km/h (2 Bft)
02.11.2012 04:10 6,4 C 12,5 C 6,5 C 6,3 C 6,2 C 0,0 C 83 % 93 % 0 % 997,8 hPa 0,0 l/m 2,9 km/h (1 Bft) W 270 0 min 0,0 UV-I 3,7 C 6,2 C 5,5 km/h (1 Bft)
02.11.2012 04:15 6,5 C 12,5 C 6,5 C 6,4 C 6,1 C 0,0 C 83 % 93 % 0 % 997,8 hPa 0,7 l/m 2,9 km/h (1 Bft) S-SO 157 0 min 0,0 UV-I 3,8 C 6,1 C 6,0 km/h (2 Bft)
02.11.2012 04:20 6,4 C 12,5 C 6,4 C 6,3 C 6,1 C 0,0 C 83 % 93 % 0 % 998,1 hPa 0,0 l/m 3,1 km/h (1 Bft) S-SO 157 0 min 0,0 UV-I 3,7 C 6,1 C 6,1 km/h (2 Bft)
02.11.2012 04:25 6,3 C 12,4 C 6,3 C 6,1 C 5,8 C 0,0 C 84 % 93 % 0 % 998,1 hPa 0,0 l/m 3,5 km/h (1 Bft) O-NO 67 0 min 0,0 UV-I 3,8 C 5,8 C 6,1 km/h (2 Bft)
02.11.2012 04:30 6,3 C 12,4 C 6,3 C 6,1 C 5,7 C 0,0 C 83 % 93 % 0 % 998,1 hPa 0,0 l/m 3,7 km/h (1 Bft) S-SO 157 0 min 0,0 UV-I 3,6 C 5,7 C 5,5 km/h (1 Bft)
02.11.2012 04:35 6,3 C 12,4 C 6,3 C 6,0 C 5,4 C 0,0 C 83 % 93 % 0 % 998,1 hPa 0,0 l/m 4,3 km/h (1 Bft) O-NO 67 0 min 0,0 UV-I 3,6 C 5,4 C 3,5 km/h (1 Bft)
02.11.2012 04:40 6,3 C 12,4 C 6,3 C 6,1 C 5,7 C 0,0 C 83 % 93 % 0 % 998,8 hPa 0,0 l/m 3,5 km/h (1 Bft) SW 225 0 min 0,0 UV-I 3,6 C 5,7 C 4,0 km/h (1 Bft)
02.11.2012 04:45 6,3 C 12,4 C 6,1 C 6,2 C 5,9 C 0,0 C 83 % 93 % 0 % 998,8 hPa 0,0 l/m 3,2 km/h (1 Bft) SO 135 0 min 0,0 UV-I 3,6 C 5,9 C 4,0 km/h (1 Bft)
02.11.2012 04:50 6,2 C 12,4 C 6,0 C 5,9 C 5,4 C 0,0 C 83 % 93 % 0 % 998,8 hPa 0,0 l/m 4,2 km/h (1 Bft) S-SO 157 0 min 0,0 UV-I 3,5 C 5,4 C 5,8 km/h (2 Bft)
02.11.2012 04:55 6,2 C 12,4 C 6,1 C 6,0 C 5,6 C 0,0 C 82 % 93 % 0 % 998,8 hPa 0,0 l/m 3,9 km/h (1 Bft) SO 135 0 min 0,0 UV-I 3,4 C 5,6 C 5,1 km/h (1 Bft)
02.11.2012 05:00 6,3 C 12,4 C 6,0 C 6,1 C 5,7 C 0,0 C 82 % 93 % 0 % 999,0 hPa 0,0 l/m 3,5 km/h (1 Bft) S 180 0 min 0,0 UV-I 3,5 C 5,7 C 5,0 km/h (1 Bft)
02.11.2012 05:05 6,3 C 12,4 C 6,1 C 6,0 C 5,4 C 0,0 C 82 % 93 % 0 % 999,0 hPa 0,0 l/m 4,3 km/h (1 Bft) S-SO 157 0 min 0,0 UV-I 3,5 C 5,4 C 6,1 km/h (2 Bft)
02.11.2012 05:10 6,2 C 12,4 C 6,0 C 5,9 C 5,2 C 0,0 C 82 % 94 % 0 % 999,0 hPa 0,0 l/m 5,0 km/h (1 Bft) S 180 0 min 0,0 UV-I 3,4 C 4,3 C 10,3 km/h (2 Bft)
02.11.2012 05:15 6,3 C 12,4 C 6,0 C 6,0 C 5,3 C 0,0 C 82 % 94 % 0 % 999,0 hPa 0,0 l/m 5,1 km/h (1 Bft) S 180 0 min 0,0 UV-I 3,5 C 4,4 C 8,9 km/h (2 Bft)
02.11.2012 05:20 6,3 C 12,4 C 6,0 C 5,9 C 5,0 C 0,0 C 82 % 94 % 0 % 998,7 hPa 0,0 l/m 6,0 km/h (2 Bft) S-SO 157 0 min 0,0 UV-I 3,5 C 3,7 C 16,1 km/h (3 Bft)
02.11.2012 05:25 6,2 C 12,4 C 6,0 C 5,7 C 4,8 C 0,0 C 82 % 93 % 0 % 998,7 hPa 0,0 l/m 6,4 km/h (2 Bft) S-SW 202 0 min 0,0 UV-I 3,4 C 3,4 C 8,0 km/h (2 Bft)
02.11.2012 05:30 6,3 C 12,4 C 6,0 C 5,7 C 4,6 C 0,0 C 82 % 94 % 0 % 998,7 hPa 0,0 l/m 6,9 km/h (2 Bft) O-SO 112 0 min 0,0 UV-I 3,5 C 3,0 C 13,4 km/h (3 Bft)
02.11.2012 05:35 6,3 C 12,4 C 5,9 C 5,7 C 4,6 C 0,0 C 82 % 93 % 0 % 998,7 hPa 0,0 l/m 7,2 km/h (2 Bft) S-SW 202 0 min 0,0 UV-I 3,5 C 2,9 C 8,7 km/h (2 Bft)
02.11.2012 05:40 6,3 C 12,4 C 5,9 C 5,7 C 4,5 C 0,0 C 81 % 93 % 0 % 999,0 hPa 0,0 l/m 7,6 km/h (2 Bft) S-SW 202 0 min 0,0 UV-I 3,3 C 2,7 C 9,8 km/h (2 Bft)
02.11.2012 05:45 6,3 C 12,4 C 5,9 C 5,8 C 4,8 C 0,0 C 81 % 93 % 0 % 999,0 hPa 0,0 l/m 6,4 km/h (2 Bft) SW 225 0 min 0,0 UV-I 3,3 C 3,4 C 11,9 km/h (2 Bft)
02.11.2012 05:50 6,2 C 12,4 C 6,0 C 5,8 C 5,1 C 0,0 C 81 % 93 % 0 % 999,0 hPa 0,0 l/m 5,5 km/h (1 Bft) S-SO 157 0 min 0,0 UV-I 3,2 C 4,0 C 5,8 km/h (2 Bft)
02.11.2012 05:55 6,3 C 12,4 C 5,9 C 5,9 C 5,2 C 0,0 C 81 % 93 % 0 % 999,0 hPa 0,0 l/m 4,7 km/h (1 Bft) S 180 0 min 0,0 UV-I 3,3 C 4,4 C 8,9 km/h (2 Bft)
02.11.2012 06:00 6,3 C 12,4 C 5,9 C 6,0 C 5,4 C 0,0 C 81 % 93 % 0 % 999,2 hPa 0,0 l/m 4,2 km/h (1 Bft) S-SW 202 0 min 0,0 UV-I 3,3 C 5,4 C 7,1 km/h (2 Bft)
02.11.2012 06:05 6,1 C 12,4 C 5,9 C 5,8 C 5,3 C 0,0 C 80 % 93 % 0 % 999,2 hPa 0,0 l/m 4,3 km/h (1 Bft) S-SO 157 0 min 0,0 UV-I 2,9 C 5,3 C 5,6 km/h (1 Bft)
02.11.2012 06:10 6,3 C 12,4 C 5,9 C 6,0 C 5,3 C 0,0 C 80 % 93 % 0 % 999,2 hPa 0,0 l/m 4,5 km/h (1 Bft) W-SW 247 0 min 0,0 UV-I 3,1 C 5,3 C 5,5 km/h (1 Bft)
02.11.2012 06:15 6,2 C 12,4 C 6,0 C 5,9 C 5,4 C 0,0 C 80 % 93 % 0 % 999,2 hPa 0,0 l/m 4,2 km/h (1 Bft) SO 135 0 min 0,0 UV-I 3,0 C 5,4 C 5,1 km/h (1 Bft)
02.11.2012 06:20 6,3 C 12,4 C 6,0 C 6,0 C 5,3 C 0,0 C 80 % 93 % 0 % 999,9 hPa 0,0 l/m 4,7 km/h (1 Bft) W-SW 247 0 min 0,0 UV-I 3,1 C 4,5 C 6,1 km/h (2 Bft)
02.11.2012 06:25 6,3 C 12,4 C 5,9 C 5,9 C 5,2 C 0,0 C 80 % 92 % 0 % 999,9 hPa 0,0 l/m 5,3 km/h (1 Bft) S 180 0 min 0,0 UV-I 3,1 C 4,2 C 6,3 km/h (2 Bft)
02.11.2012 06:30 6,4 C 12,4 C 5,9 C 6,1 C 5,4 C 0,0 C 80 % 92 % 0 % 999,9 hPa 0,0 l/m 4,8 km/h (1 Bft) W-NW 292 0 min 0,0 UV-I 3,2 C 4,6 C 4,7 km/h (1 Bft)
02.11.2012 06:35 6,4 C 12,4 C 6,0 C 6,1 C 5,6 C 0,0 C 80 % 93 % 0 % 999,9 hPa 0,0 l/m 4,0 km/h (1 Bft) S-SW 202 0 min 0,0 UV-I 3,2 C 5,6 C 5,5 km/h (1 Bft)
02.11.2012 06:46 6,4 C 12,4 C 6,0 C 6,3 C 6,0 C 0,0 C 79 % 93 % 0 % 1000,1 hPa 0,0 l/m 3,1 km/h (1 Bft) N 0 0 min 0,0 UV-I 3,0 C 6,0 C 4,2 km/h (1 Bft)
02.11.2012 06:55 6,4 C 12,4 C 6,0 C 6,2 C 5,9 C 0,0 C 80 % 93 % 0 % 1000,1 hPa 0,0 l/m 2,9 km/h (1 Bft) S 180 0 min 0,0 UV-I 3,2 C 5,9 C 3,4 km/h (1 Bft)
02.11.2012 07:00 6,4 C 12,4 C 5,9 C 6,2 C 5,8 C 0,0 C 80 % 93 % 0 % 1000,4 hPa 0,0 l/m 2,6 km/h (1 Bft) N-NO 22 0 min 0,0 UV-I 3,2 C 5,8 C 3,7 km/h (1 Bft)
02.11.2012 07:05 6,3 C 12,4 C 6,0 C 6,1 C 5,8 C 0,0 C 80 % 93 % 0 % 1000,4 hPa 0,0 l/m 2,7 km/h (1 Bft) SO 135 0 min 0,0 UV-I 3,1 C 5,8 C 3,4 km/h (1 Bft)
02.11.2012 07:10 6,3 C 12,4 C 5,9 C 6,1 C 5,7 C 0,0 C 80 % 93 % 0 % 1000,4 hPa 0,0 l/m 3,2 km/h (1 Bft) N-NW 337 0 min 0,0 UV-I 3,1 C 5,7 C 11,1 km/h (2 Bft)
02.11.2012 07:15 6,4 C 12,4 C 5,9 C 6,0 C 5,2 C 0,0 C 79 % 93 % 0 % 1000,4 hPa 0,0 l/m 4,8 km/h (1 Bft) SW 225 0 min 0,0 UV-I 3,0 C 4,4 C 6,4 km/h (2 Bft)
02.11.2012 07:20 6,3 C 12,4 C 5,9 C 5,8 C 4,7 C 0,0 C 79 % 92 % 0 % 1001,3 hPa 0,0 l/m 6,4 km/h (2 Bft) S 180 0 min 0,0 UV-I 2,9 C 3,2 C 11,7 km/h (2 Bft)
02.11.2012 07:25 6,5 C 12,4 C 5,8 C 6,0 C 4,9 C 0,0 C 79 % 92 % 0 % 1001,3 hPa 0,0 l/m 6,1 km/h (2 Bft) SW 225 0 min 0,0 UV-I 3,1 C 3,6 C 4,7 km/h (1 Bft)
02.11.2012 07:30 6,4 C 12,3 C 5,9 C 6,0 C 5,3 C 0,0 C 79 % 92 % 0 % 1001,3 hPa 0,0 l/m 5,1 km/h (1 Bft) S-SO 157 0 min 0,0 UV-I 3,0 C 4,4 C 2,4 km/h (1 Bft)
02.11.2012 07:35 6,5 C 12,3 C 5,9 C 6,0 C 5,1 C 0,0 C 79 % 92 % 0 % 1001,3 hPa 0,0 l/m 6,0 km/h (2 Bft) S-SO 157 0 min 0,0 UV-I 3,1 C 3,8 C 9,0 km/h (2 Bft)
02.11.2012 07:40 6,6 C 12,3 C 6,1 C 6,1 C 5,1 C 0,0 C 79 % 92 % 0 % 1001,3 hPa 0,0 l/m 6,0 km/h (2 Bft) SO 135 0 min 0,0 UV-I 3,2 C 3,8 C 8,4 km/h (2 Bft)
02.11.2012 07:45 6,5 C 12,3 C 6,0 C 6,1 C 5,3 C 0,0 C 78 % 91 % 0 % 1001,3 hPa 0,0 l/m 5,1 km/h (1 Bft) SW 225 0 min 0,0 UV-I 2,9 C 4,4 C 7,4 km/h (2 Bft)
02.11.2012 07:50 6,5 C 12,3 C 5,9 C 5,9 C 4,8 C 0,0 C 78 % 91 % 0 % 1001,3 hPa 0,0 l/m 6,4 km/h (2 Bft) W 270 0 min 0,0 UV-I 2,9 C 3,4 C 11,1 km/h (2 Bft)
02.11.2012 07:55 6,7 C 12,3 C 6,0 C 6,2 C 4,7 C 0,0 C 77 % 91 % 0 % 1001,3 hPa 0,0 l/m 7,7 km/h (2 Bft) SW 225 0 min 0,0 UV-I 3,0 C 2,9 C 26,6 km/h (4 Bft)
02.11.2012 08:00 6,6 C 12,3 C 6,0 C 6,1 C 5,0 C 0,0 C 77 % 91 % 0 % 1001,6 hPa 0,0 l/m 6,3 km/h (2 Bft) S 180 0 min 0,0 UV-I 2,9 C 3,6 C 13,7 km/h (3 Bft)
02.11.2012 08:05 6,5 C 12,3 C 5,9 C 6,2 C 5,5 C 0,0 C 77 % 90 % 0 % 1001,6 hPa 0,0 l/m 4,5 km/h (1 Bft) W 270 0 min 0,0 UV-I 2,8 C 5,5 C 6,6 km/h (2 Bft)
02.11.2012 08:10 6,6 C 12,3 C 6,0 C 6,2 C 5,4 C 0,0 C 77 % 90 % 0 % 1001,6 hPa 0,0 l/m 4,8 km/h (1 Bft) SW 225 0 min 0,0 UV-I 2,9 C 4,6 C 10,0 km/h (2 Bft)
02.11.2012 08:15 6,7 C 12,3 C 6,1 C 6,3 C 4,6 C 0,0 C 77 % 90 % 0 % 1001,6 hPa 0,0 l/m 8,7 km/h (2 Bft) SW 225 0 min 0,0 UV-I 3,0 C 2,5 C 14,6 km/h (3 Bft)
02.11.2012 08:20 6,8 C 12,3 C 6,1 C 6,3 C 4,7 C 0,0 C 77 % 90 % 0 % 1002,1 hPa 0,0 l/m 10,3 km/h (2 Bft) S-SW 202 0 min 0,0 UV-I 3,1 C 2,2 C 9,2 km/h (2 Bft)
02.11.2012 08:25 6,8 C 12,3 C 6,5 C 6,5 C 5,4 C 0,0 C 77 % 90 % 0 % 1002,1 hPa 0,0 l/m 9,7 km/h (2 Bft) W-SW 247 0 min 0,0 UV-I 3,1 C 3,2 C 10,9 km/h (2 Bft)
02.11.2012 08:30 6,9 C 12,3 C 6,5 C 6,7 C 6,1 C 0,0 C 77 % 90 % 0 % 1002,1 hPa 0,0 l/m 7,7 km/h (2 Bft) S-SW 202 0 min 0,0 UV-I 3,2 C 4,5 C 7,6 km/h (2 Bft)
02.11.2012 08:35 7,1 C 12,3 C 6,7 C 7,0 C 6,9 C 0,0 C 77 % 89 % 0 % 1002,1 hPa 0,0 l/m 5,3 km/h (1 Bft) S 180 0 min 0,0 UV-I 3,3 C 6,1 C 6,9 km/h (2 Bft)
02.11.2012 08:40 7,1 C 12,3 C 6,7 C 7,2 C 7,2 C 0,1 C 77 % 89 % 3 % 1002,4 hPa 0,0 l/m 4,7 km/h (1 Bft) S 180 0 min 0,0 UV-I 3,3 C 6,7 C 2,7 km/h (1 Bft)
02.11.2012 08:45 7,1 C 12,2 C 6,8 C 7,4 C 7,4 C 0,3 C 77 % 89 % 8 % 1002,4 hPa 0,0 l/m 4,3 km/h (1 Bft) O-SO 112 0 min 0,0 UV-I 3,3 C 7,4 C 4,5 km/h (1 Bft)
02.11.2012 08:50 7,1 C 12,2 C 6,9 C 7,6 C 7,6 C 0,5 C 77 % 88 % 13 % 1002,4 hPa 0,0 l/m 4,0 km/h (1 Bft) O-NO 67 0 min 0,0 UV-I 3,3 C 7,6 C 2,9 km/h (1 Bft)
02.11.2012 08:55 7,2 C 12,2 C 6,8 C 7,8 C 7,8 C 0,6 C 77 % 89 % 16 % 1002,4 hPa 0,0 l/m 3,5 km/h (1 Bft) S 180 0 min 0,0 UV-I 3,4 C 7,8 C 5,0 km/h (1 Bft)
02.11.2012 09:00 7,2 C 12,2 C 6,9 C 7,8 C 7,8 C 0,6 C 77 % 89 % 16 % 1002,7 hPa 0,0 l/m 3,1 km/h (1 Bft) S 180 0 min 0,0 UV-I 3,4 C 7,8 C 5,5 km/h (1 Bft)
02.11.2012 09:05 7,2 C 12,2 C 6,9 C 7,7 C 7,7 C 0,5 C 76 % 88 % 13 % 1002,7 hPa 0,0 l/m 3,7 km/h (1 Bft) S 180 0 min 0,0 UV-I 3,3 C 7,7 C 2,9 km/h (1 Bft)
02.11.2012 09:10 7,3 C 12,2 C 7,1 C 7,7 C 7,7 C 0,4 C 76 % 88 % 11 % 1002,7 hPa 0,0 l/m 4,0 km/h (1 Bft) S-SO 157 0 min 0,0 UV-I 3,4 C 7,7 C 2,9 km/h (1 Bft)
02.11.2012 09:15 7,4 C 12,2 C 7,1 C 8,1 C 8,1 C 0,7 C 76 % 88 % 18 % 1002,7 hPa 0,0 l/m 3,9 km/h (1 Bft) W 270 0 min 0,0 UV-I 3,5 C 8,1 C 6,3 km/h (2 Bft)
02.11.2012 09:20 7,4 C 12,2 C 7,2 C 8,2 C 8,2 C 0,8 C 76 % 88 % 21 % 1002,8 hPa 0,0 l/m 3,7 km/h (1 Bft) W-SW 247 0 min 0,0 UV-I 3,5 C 8,2 C 3,4 km/h (1 Bft)
02.11.2012 09:25 7,5 C 12,2 C 7,2 C 8,0 C 8,0 C 0,5 C 76 % 87 % 13 % 1002,8 hPa 0,0 l/m 4,2 km/h (1 Bft) W 270 0 min 0,0 UV-I 3,5 C 8,0 C 5,6 km/h (1 Bft)
02.11.2012 09:30 7,7 C 12,2 C 7,2 C 7,9 C 7,9 C 0,2 C 75 % 86 % 5 % 1002,8 hPa 0,0 l/m 4,0 km/h (1 Bft) S 180 0 min 0,0 UV-I 3,6 C 7,9 C 4,7 km/h (1 Bft)
02.11.2012 09:35 7,7 C 12,2 C 7,2 C 7,7 C 7,6 C 0,0 C 74 % 86 % 0 % 1002,8 hPa 0,0 l/m 4,7 km/h (1 Bft) SW 225 0 min 0,0 UV-I 3,4 C 7,1 C 4,5 km/h (1 Bft)
02.11.2012 09:40 7,7 C 12,2 C 7,4 C 7,6 C 7,3 C 0,0 C 73 % 85 % 0 % 1003,1 hPa 0,0 l/m 5,8 km/h (2 Bft) SW 225 0 min 0,0 UV-I 3,2 C 6,4 C 7,1 km/h (2 Bft)
02.11.2012 09:45 7,9 C 12,2 C 7,6 C 7,7 C 7,2 C 0,0 C 72 % 84 % 0 % 1003,1 hPa 0,0 l/m 7,2 km/h (2 Bft) O-NO 67 0 min 0,0 UV-I 3,2 C 5,9 C 8,0 km/h (2 Bft)
02.11.2012 09:50 7,9 C 12,2 C 7,7 C 7,6 C 7,1 C 0,0 C 72 % 83 % 0 % 1003,1 hPa 0,0 l/m 7,6 km/h (2 Bft) W-SW 247 0 min 0,0 UV-I 3,2 C 5,7 C 5,0 km/h (1 Bft)
02.11.2012 09:55 7,9 C 12,2 C 7,5 C 7,7 C 6,4 C 0,0 C 72 % 83 % 0 % 1003,1 hPa 0,0 l/m 9,2 km/h (2 Bft) SW 225 0 min 0,1 UV-I 3,2 C 4,5 C 13,5 km/h (3 Bft)
02.11.2012 10:00 7,8 C 12,2 C 7,2 C 7,4 C 6,5 C 0,0 C 72 % 84 % 0 % 1003,8 hPa 0,0 l/m 7,4 km/h (2 Bft) W-SW 247 0 min 0,1 UV-I 3,1 C 5,0 C 2,7 km/h (1 Bft)
02.11.2012 10:05 7,7 C 12,2 C 7,1 C 7,5 C 7,1 C 0,0 C 72 % 84 % 0 % 1003,8 hPa 0,0 l/m 5,0 km/h (1 Bft) N-NO 22 0 min 0,1 UV-I 3,0 C 6,5 C 4,7 km/h (1 Bft)
02.11.2012 10:10 7,7 C 12,2 C 7,2 C 7,5 C 7,0 C 0,0 C 72 % 83 % 0 % 1003,8 hPa 0,0 l/m 4,7 km/h (1 Bft) W-NW 292 0 min 0,1 UV-I 3,0 C 6,5 C 12,9 km/h (3 Bft)
02.11.2012 10:15 7,7 C 12,2 C 7,3 C 7,4 C 6,9 C 0,0 C 72 % 83 % 0 % 1003,8 hPa 0,0 l/m 5,6 km/h (1 Bft) W-NW 292 0 min 0,1 UV-I 3,0 C 6,0 C 8,4 km/h (2 Bft)
02.11.2012 10:20 7,8 C 12,2 C 7,5 C 7,5 C 7,0 C 0,0 C 72 % 83 % 0 % 1003,5 hPa 0,0 l/m 5,6 km/h (1 Bft) O-SO 112 0 min 0,1 UV-I 3,1 C 6,1 C 5,6 km/h (1 Bft)
02.11.2012 10:25 7,9 C 12,2 C 7,7 C 7,9 C 7,8 C 0,0 C 73 % 83 % 0 % 1003,5 hPa 0,0 l/m 4,3 km/h (1 Bft) O-SO 112 0 min 0,1 UV-I 3,4 C 7,8 C 3,7 km/h (1 Bft)
02.11.2012 10:30 7,9 C 12,2 C 7,6 C 7,9 C 7,9 C 0,0 C 72 % 82 % 0 % 1003,5 hPa 0,0 l/m 4,7 km/h (1 Bft) W-SW 247 0 min 0,2 UV-I 3,2 C 7,5 C 9,7 km/h (2 Bft)
02.11.2012 10:35 8,0 C 12,2 C 7,6 C 7,8 C 7,4 C 0,0 C 72 % 81 % 0 % 1003,5 hPa 0,0 l/m 6,3 km/h (2 Bft) S-SW 202 0 min 0,1 UV-I 3,3 C 6,4 C 5,8 km/h (2 Bft)
02.11.2012 10:40 8,0 C 12,2 C 7,6 C 7,8 C 7,5 C 0,0 C 72 % 81 % 0 % 1004,2 hPa 0,0 l/m 6,9 km/h (2 Bft) W-NW 292 0 min 0,2 UV-I 3,3 C 6,3 C 12,6 km/h (3 Bft)
02.11.2012 10:45 8,1 C 12,2 C 7,8 C 8,0 C 7,9 C 0,0 C 72 % 81 % 0 % 1004,2 hPa 0,0 l/m 6,9 km/h (2 Bft) S-SW 202 0 min 0,2 UV-I 3,4 C 6,8 C 12,1 km/h (2 Bft)
02.11.2012 10:50 8,3 C 12,2 C 7,9 C 8,3 C 8,2 C 0,0 C 72 % 81 % 0 % 1004,2 hPa 0,0 l/m 6,1 km/h (2 Bft) SO 135 0 min 0,2 UV-I 3,6 C 7,4 C 8,7 km/h (2 Bft)
02.11.2012 10:55 8,5 C 12,2 C 8,2 C 9,3 C 9,3 C 0,8 C 71 % 80 % 21 % 1004,2 hPa 0,0 l/m 5,3 km/h (1 Bft) O 90 0 min 0,2 UV-I 3,5 C 8,9 C 9,7 km/h (2 Bft)
02.11.2012 11:00 8,7 C 12,2 C 8,4 C 9,8 C 9,8 C 1,1 C 70 % 79 % 29 % 1004,5 hPa 0,0 l/m 5,8 km/h (2 Bft) SW 225 0 min 0,3 UV-I 3,5 C 9,3 C 8,9 km/h (2 Bft)
02.11.2012 11:05 8,7 C 12,2 C 8,5 C 9,3 C 9,3 C 0,6 C 68 % 77 % 16 % 1004,5 hPa 0,0 l/m 7,6 km/h (2 Bft) O-SO 112 0 min 0,3 UV-I 3,1 C 8,3 C 4,3 km/h (1 Bft)
02.11.2012 11:10 8,6 C 12,2 C 8,4 C 9,2 C 9,2 C 0,6 C 69 % 78 % 16 % 1004,5 hPa 0,0 l/m 6,9 km/h (2 Bft) O-NO 67 0 min 0,3 UV-I 3,2 C 8,3 C 5,0 km/h (1 Bft)
02.11.2012 11:15 8,7 C 12,2 C 8,4 C 8,9 C 8,9 C 0,2 C 68 % 77 % 5 % 1004,5 hPa 0,0 l/m 7,2 km/h (2 Bft) SW 225 0 min 0,3 UV-I 3,1 C 7,9 C 23,5 km/h (4 Bft)
02.11.2012 11:20 8,6 C 12,2 C 8,3 C 8,6 C 8,6 C 0,0 C 67 % 76 % 0 % 1004,9 hPa 0,0 l/m 7,6 km/h (2 Bft) W-SW 247 0 min 0,2 UV-I 2,8 C 7,5 C 8,4 km/h (2 Bft)
02.11.2012 11:25 8,7 C 12,2 C 8,5 C 8,7 C 7,9 C 0,0 C 66 % 75 % 0 % 1004,9 hPa 0,0 l/m 10,5 km/h (2 Bft) SW 225 0 min 0,2 UV-I 2,7 C 6,0 C 26,7 km/h (4 Bft)
02.11.2012 11:30 8,8 C 12,2 C 8,5 C 8,8 C 8,3 C 0,0 C 67 % 75 % 0 % 1004,9 hPa 0,0 l/m 10,3 km/h (2 Bft) O 90 0 min 0,2 UV-I 3,0 C 6,5 C 12,6 km/h (3 Bft)
02.11.2012 11:35 8,8 C 12,2 C 8,6 C 9,3 C 9,3 C 0,5 C 67 % 74 % 13 % 1004,9 hPa 0,0 l/m 8,0 km/h (2 Bft) W-SW 247 0 min 0,3 UV-I 3,0 C 8,2 C 10,3 km/h (2 Bft)
02.11.2012 11:40 8,8 C 12,2 C 8,7 C 10,4 C 10,4 C 1,6 C 67 % 75 % 42 % 1004,5 hPa 0,0 l/m 7,4 km/h (2 Bft) SO 135 0 min 0,3 UV-I 3,0 C 10,4 C 5,8 km/h (2 Bft)
02.11.2012 11:45 9,1 C 12,2 C 8,8 C 11,7 C 11,7 C 2,6 C 68 % 75 % 68 % 1004,5 hPa 0,0 l/m 7,1 km/h (2 Bft) W-SW 247 0 min 0,3 UV-I 3,5 C 11,7 C 1,8 km/h (1 Bft)
02.11.2012 11:50 9,1 C 12,2 C 8,8 C 12,3 C 12,3 C 3,2 C 66 % 73 % 84 % 1004,5 hPa 0,0 l/m 7,1 km/h (2 Bft) NO 45 0 min 0,3 UV-I 3,1 C 12,3 C 14,0 km/h (3 Bft)
02.11.2012 11:55 9,2 C 12,2 C 8,8 C 12,2 C 12,2 C 3,0 C 66 % 73 % 79 % 1004,5 hPa 0,0 l/m 5,5 km/h (1 Bft) SO 135 0 min 0,3 UV-I 3,2 C 12,2 C 4,2 km/h (1 Bft)
02.11.2012 12:00 9,1 C 12,2 C 8,8 C 11,3 C 11,3 C 2,2 C 67 % 74 % 58 % 1005,0 hPa 0,0 l/m 5,3 km/h (1 Bft) W-SW 247 0 min 0,2 UV-I 3,3 C 11,3 C 12,9 km/h (3 Bft)
02.11.2012 12:05 9,1 C 12,2 C 8,8 C 11,4 C 11,4 C 2,3 C 67 % 74 % 61 % 1005,0 hPa 0,0 l/m 5,5 km/h (1 Bft) S-SO 157 0 min 0,3 UV-I 3,3 C 11,4 C 8,0 km/h (2 Bft)
02.11.2012 12:10 9,1 C 12,2 C 8,9 C 11,5 C 11,5 C 2,4 C 68 % 75 % 63 % 1005,0 hPa 0,0 l/m 4,8 km/h (1 Bft) S-SW 202 0 min 0,3 UV-I 3,5 C 11,5 C 4,5 km/h (1 Bft)
02.11.2012 12:15 9,2 C 12,2 C 8,9 C 11,5 C 11,5 C 2,3 C 68 % 75 % 61 % 1005,0 hPa 0,0 l/m 3,7 km/h (1 Bft) O 90 0 min 0,3 UV-I 3,6 C 11,5 C 5,5 km/h (1 Bft)
02.11.2012 12:20 9,2 C 12,2 C 8,9 C 11,1 C 11,1 C 1,9 C 68 % 75 % 50 % 1004,9 hPa 0,0 l/m 4,3 km/h (1 Bft) S 180 0 min 0,3 UV-I 3,6 C 11,1 C 11,7 km/h (2 Bft)
02.11.2012 12:25 9,2 C 12,2 C 8,9 C 9,9 C 9,9 C 0,7 C 66 % 74 % 18 % 1004,9 hPa 0,0 l/m 6,4 km/h (2 Bft) W 270 0 min 0,1 UV-I 3,2 C 9,3 C 10,9 km/h (2 Bft)
02.11.2012 12:30 9,2 C 12,2 C 8,8 C 9,3 C 9,3 C 0,1 C 66 % 75 % 3 % 1004,9 hPa 0,0 l/m 7,6 km/h (2 Bft) S 180 0 min 0,1 UV-I 3,2 C 8,3 C 6,9 km/h (2 Bft)
02.11.2012 12:35 9,1 C 12,2 C 8,8 C 9,2 C 9,2 C 0,1 C 67 % 75 % 3 % 1004,9 hPa 0,0 l/m 7,1 km/h (2 Bft) S-SO 157 0 min 0,1 UV-I 3,3 C 8,3 C 9,0 km/h (2 Bft)
02.11.2012 12:42 9,1 C 12,2 C 8,8 C 9,3 C 9,3 C 0,2 C 67 % 75 % 5 % 1004,9 hPa 0,0 l/m 6,8 km/h (2 Bft) N 0 0 min 0,3 UV-I 3,3 C 8,5 C 10,3 km/h (2 Bft)
02.11.2012 12:55 9,7 C 12,3 C 9,7 C 11,2 C 11,2 C 1,5 C 61 % 69 % 39 % 1004,9 hPa 0,0 l/m 7,4 km/h (2 Bft) SW 225 0 min 0,2 UV-I 2,5 C 11,2 C 14,6 km/h (3 Bft)
02.11.2012 13:00 9,6 C 12,3 C 9,6 C 11,0 C 10,5 C 1,4 C 61 % 68 % 37 % 1005,1 hPa 0,0 l/m 8,7 km/h (2 Bft) W-SW 247 0 min 0,1 UV-I 2,5 C 10,5 C 12,6 km/h (3 Bft)
02.11.2012 13:05 9,7 C 12,3 C 9,5 C 10,5 C 9,9 C 0,8 C 61 % 70 % 21 % 1005,1 hPa 0,0 l/m 10,3 km/h (2 Bft) SW 225 0 min 0,0 UV-I 2,5 C 8,5 C 15,4 km/h (3 Bft)
02.11.2012 13:10 9,7 C 12,3 C 9,5 C 9,9 C 9,9 C 0,2 C 62 % 70 % 5 % 1005,1 hPa 0,0 l/m 9,2 km/h (2 Bft) W-SW 247 0 min 0,0 UV-I 2,8 C 8,7 C 14,6 km/h (3 Bft)
02.11.2012 13:15 9,7 C 12,3 C 9,7 C 10,4 C 10,3 C 0,7 C 62 % 71 % 18 % 1005,1 hPa 0,0 l/m 7,7 km/h (2 Bft) SW 225 0 min 0,1 UV-I 2,8 C 10,3 C 8,9 km/h (2 Bft)
02.11.2012 13:20 9,7 C 12,3 C 9,7 C 10,3 C 10,3 C 0,6 C 61 % 70 % 16 % 1005,2 hPa 0,0 l/m 7,7 km/h (2 Bft) W-SW 247 0 min 0,1 UV-I 2,5 C 10,3 C 10,3 km/h (2 Bft)
02.11.2012 13:25 9,7 C 12,3 C 9,6 C 10,5 C 10,2 C 0,8 C 60 % 67 % 21 % 1005,2 hPa 0,0 l/m 8,0 km/h (2 Bft) W-SW 247 0 min 0,0 UV-I 2,3 C 10,2 C 5,8 km/h (2 Bft)
02.11.2012 13:30 9,6 C 12,3 C 9,6 C 10,3 C 9,9 C 0,7 C 59 % 67 % 18 % 1005,2 hPa 0,0 l/m 8,2 km/h (2 Bft) S-SO 157 0 min 0,0 UV-I 2,0 C 8,8 C 11,9 km/h (2 Bft)
02.11.2012 13:35 9,6 C 12,3 C 9,6 C 10,0 C 9,6 C 0,4 C 60 % 68 % 11 % 1005,2 hPa 0,0 l/m 8,5 km/h (2 Bft) W-SW 247 0 min 0,0 UV-I 2,2 C 8,4 C 14,6 km/h (3 Bft)
02.11.2012 13:40 9,8 C 12,3 C 9,8 C 10,3 C 10,1 C 0,5 C 61 % 69 % 13 % 1005,3 hPa 0,0 l/m 9,0 km/h (2 Bft) W-SW 247 0 min 0,1 UV-I 2,6 C 10,1 C 9,7 km/h (2 Bft)
02.11.2012 13:45 9,8 C 12,3 C 9,9 C 10,6 C 10,4 C 0,8 C 60 % 68 % 21 % 1005,3 hPa 0,0 l/m 8,4 km/h (2 Bft) W 270 0 min 0,1 UV-I 2,4 C 10,4 C 12,6 km/h (3 Bft)
02.11.2012 13:50 10,0 C 12,3 C 10,0 C 10,8 C 10,6 C 0,8 C 60 % 67 % 21 % 1005,3 hPa 0,0 l/m 8,5 km/h (2 Bft) S 180 0 min 0,1 UV-I 2,6 C 10,6 C 13,4 km/h (3 Bft)
02.11.2012 13:55 10,1 C 12,3 C 10,0 C 11,3 C 11,3 C 1,2 C 61 % 68 % 32 % 1005,3 hPa 0,0 l/m 6,8 km/h (2 Bft) S 180 0 min 0,1 UV-I 2,9 C 11,3 C 5,8 km/h (2 Bft)
02.11.2012 14:00 10,0 C 12,3 C 10,0 C 11,3 C 11,3 C 1,3 C 59 % 66 % 34 % 1005,1 hPa 0,0 l/m 6,1 km/h (2 Bft) S-SW 202 0 min 0,1 UV-I 2,4 C 11,3 C 6,6 km/h (2 Bft)
02.11.2012 14:05 10,1 C 12,4 C 10,0 C 11,5 C 11,1 C 1,4 C 58 % 66 % 37 % 1005,1 hPa 0,0 l/m 9,5 km/h (2 Bft) SW 225 0 min 0,1 UV-I 2,2 C 11,1 C 12,9 km/h (3 Bft)
02.11.2012 14:10 10,0 C 12,3 C 9,7 C 11,0 C 10,5 C 1,0 C 58 % 66 % 26 % 1005,1 hPa 0,0 l/m 9,5 km/h (2 Bft) W-SW 247 0 min 0,1 UV-I 2,1 C 10,5 C 10,8 km/h (2 Bft)
02.11.2012 14:15 10,0 C 12,3 C 9,5 C 10,3 C 10,3 C 0,3 C 60 % 67 % 8 % 1005,1 hPa 0,0 l/m 7,1 km/h (2 Bft) SO 135 0 min 0,0 UV-I 2,6 C 10,3 C 6,8 km/h (2 Bft)
02.11.2012 14:20 10,1 C 12,4 C 9,6 C 10,4 C 10,4 C 0,3 C 60 % 68 % 8 % 1005,0 hPa 0,0 l/m 6,9 km/h (2 Bft) W 270 0 min 0,0 UV-I 2,7 C 10,4 C 8,2 km/h (2 Bft)
02.11.2012 14:25 10,1 C 12,4 C 9,5 C 10,6 C 10,6 C 0,5 C 60 % 68 % 13 % 1005,0 hPa 0,0 l/m 7,6 km/h (2 Bft) S-SW 202 0 min 0,0 UV-I 2,7 C 10,6 C 14,3 km/h (3 Bft)
02.11.2012 14:30 9,9 C 12,4 C 9,2 C 10,4 C 9,8 C 0,5 C 60 % 68 % 13 % 1005,0 hPa 0,0 l/m 8,5 km/h (2 Bft) SW 225 0 min 0,0 UV-I 2,5 C 8,7 C 14,3 km/h (3 Bft)
02.11.2012 14:35 9,6 C 12,3 C 8,9 C 9,6 C 8,9 C 0,0 C 61 % 69 % 0 % 1005,0 hPa 0,0 l/m 8,4 km/h (2 Bft) SW 225 0 min 0,0 UV-I 2,5 C 7,6 C 12,9 km/h (3 Bft)
02.11.2012 14:40 9,5 C 12,3 C 8,8 C 9,3 C 8,9 C 0,0 C 62 % 70 % 0 % 1005,6 hPa 0,0 l/m 7,7 km/h (2 Bft) SW 225 0 min 0,0 UV-I 2,6 C 7,8 C 6,9 km/h (2 Bft)
02.11.2012 14:45 9,5 C 12,3 C 8,7 C 9,2 C 8,7 C 0,0 C 62 % 70 % 0 % 1005,6 hPa 0,0 l/m 7,1 km/h (2 Bft) W-SW 247 0 min 0,0 UV-I 2,6 C 7,7 C 11,3 km/h (2 Bft)
02.11.2012 14:50 9,5 C 12,3 C 8,7 C 9,4 C 9,3 C 0,0 C 62 % 70 % 0 % 1005,6 hPa 0,0 l/m 7,6 km/h (2 Bft) W-SW 247 0 min 0,0 UV-I 2,6 C 8,3 C 8,4 km/h (2 Bft)
02.11.2012 14:55 9,4 C 12,3 C 8,5 C 9,4 C 9,4 C 0,0 C 62 % 71 % 0 % 1005,6 hPa 0,0 l/m 6,3 km/h (2 Bft) S-SW 202 0 min 0,0 UV-I 2,5 C 8,7 C 4,3 km/h (1 Bft)
02.11.2012 15:00 9,5 C 12,3 C 8,4 C 9,5 C 9,4 C 0,0 C 63 % 71 % 0 % 1005,2 hPa 0,0 l/m 5,1 km/h (1 Bft) SW 225 0 min 0,0 UV-I 2,8 C 9,0 C 3,9 km/h (1 Bft)
02.11.2012 15:05 9,6 C 12,3 C 8,7 C 10,5 C 10,5 C 0,9 C 63 % 72 % 24 % 1005,2 hPa 0,0 l/m 3,7 km/h (1 Bft) W-SW 247 0 min 0,0 UV-I 2,9 C 10,5 C 4,2 km/h (1 Bft)
02.11.2012 15:10 9,7 C 12,3 C 8,8 C 11,5 C 11,5 C 1,8 C 62 % 71 % 47 % 1005,2 hPa 0,0 l/m 3,5 km/h (1 Bft) SW 225 0 min 0,0 UV-I 2,8 C 11,5 C 3,4 km/h (1 Bft)
02.11.2012 15:15 9,9 C 12,3 C 9,1 C 12,5 C 12,5 C 2,6 C 61 % 70 % 68 % 1005,2 hPa 0,0 l/m 4,5 km/h (1 Bft) SW 225 0 min 0,0 UV-I 2,7 C 12,5 C 12,7 km/h (3 Bft)
02.11.2012 15:20 9,9 C 12,3 C 9,1 C 12,8 C 12,8 C 2,9 C 60 % 69 % 76 % 1005,2 hPa 0,0 l/m 5,0 km/h (1 Bft) S-SO 157 0 min 0,0 UV-I 2,5 C 12,8 C 3,2 km/h (1 Bft)
02.11.2012 15:25 9,9 C 12,3 C 8,8 C 12,7 C 12,7 C 2,8 C 61 % 70 % 74 % 1005,2 hPa 0,0 l/m 4,0 km/h (1 Bft) S-SW 202 0 min 0,0 UV-I 2,7 C 12,7 C 2,6 km/h (1 Bft)
02.11.2012 15:30 9,7 C 12,3 C 8,8 C 11,9 C 11,9 C 2,2 C 61 % 70 % 58 % 1005,2 hPa 0,0 l/m 2,4 km/h (1 Bft) SO 135 5 min 0,0 UV-I 2,5 C 11,9 C 6,6 km/h (2 Bft)
02.11.2012 15:35 9,6 C 12,3 C 8,8 C 12,0 C 12,0 C 2,4 C 60 % 69 % 63 % 1005,2 hPa 0,0 l/m 3,2 km/h (1 Bft) SO 135 5 min 0,0 UV-I 2,2 C 12,0 C 5,8 km/h (2 Bft)
02.11.2012 15:40 9,8 C 12,3 C 8,8 C 12,3 C 12,3 C 2,5 C 61 % 70 % 66 % 1005,5 hPa 0,0 l/m 3,9 km/h (1 Bft) NO 45 5 min 0,0 UV-I 2,6 C 12,3 C 5,0 km/h (1 Bft)
02.11.2012 15:45 10,0 C 12,3 C 8,7 C 12,4 C 12,4 C 2,4 C 60 % 70 % 63 % 1005,5 hPa 0,0 l/m 3,4 km/h (1 Bft) O 90 5 min 0,0 UV-I 2,6 C 12,4 C 3,1 km/h (1 Bft)
02.11.2012 15:50 10,0 C 12,3 C 8,7 C 12,3 C 12,3 C 2,3 C 60 % 70 % 61 % 1005,5 hPa 0,0 l/m 4,0 km/h (1 Bft) W 270 5 min 0,0 UV-I 2,6 C 12,3 C 12,4 km/h (3 Bft)
02.11.2012 15:55 10,0 C 12,4 C 8,6 C 12,3 C 12,3 C 2,3 C 61 % 70 % 61 % 1005,5 hPa 0,0 l/m 3,5 km/h (1 Bft) O-NO 67 5 min 0,0 UV-I 2,8 C 12,3 C 2,3 km/h (1 Bft)
02.11.2012 16:00 10,0 C 12,4 C 8,5 C 12,1 C 12,1 C 2,1 C 61 % 70 % 55 % 1005,6 hPa 0,0 l/m 2,4 km/h (1 Bft) SO 135 5 min 0,0 UV-I 2,8 C 12,1 C 4,3 km/h (1 Bft)
02.11.2012 16:05 9,8 C 12,4 C 8,5 C 11,3 C 11,3 C 1,5 C 60 % 70 % 39 % 1005,6 hPa 0,0 l/m 2,1 km/h (1 Bft) S-SO 157 5 min 0,0 UV-I 2,4 C 11,3 C 2,3 km/h (1 Bft)
02.11.2012 16:10 9,7 C 12,4 C 8,5 C 10,6 C 10,6 C 0,9 C 60 % 70 % 24 % 1005,6 hPa 0,0 l/m 2,6 km/h (1 Bft) SW 225 5 min 0,0 UV-I 2,3 C 10,6 C 5,3 km/h (1 Bft)
02.11.2012 16:15 9,5 C 12,4 C 8,3 C 9,6 C 9,6 C 0,1 C 61 % 70 % 3 % 1005,6 hPa 0,0 l/m 2,1 km/h (1 Bft) S-SO 157 0 min 0,0 UV-I 2,4 C 9,6 C 4,2 km/h (1 Bft)
02.11.2012 16:20 9,4 C 12,4 C 8,1 C 9,3 C 9,0 C 0,0 C 61 % 71 % 0 % 1005,9 hPa 0,0 l/m 1,8 km/h (1 Bft) S 180 0 min 0,0 UV-I 2,3 C 9,0 C 3,4 km/h (1 Bft)
02.11.2012 16:25 9,1 C 12,4 C 7,8 C 8,9 C 8,5 C 0,0 C 62 % 71 % 0 % 1005,9 hPa 0,0 l/m 1,3 km/h (1 Bft) S 180 0 min 0,0 UV-I 2,2 C 8,5 C 2,6 km/h (1 Bft)
02.11.2012 16:30 9,1 C 12,4 C 7,7 C 8,8 C 8,2 C 0,0 C 62 % 72 % 0 % 1005,9 hPa 0,0 l/m 1,8 km/h (1 Bft) S 180 0 min 0,0 UV-I 2,2 C 8,2 C 4,3 km/h (1 Bft)
02.11.2012 16:35 8,9 C 12,5 C 7,5 C 8,5 C 7,8 C 0,0 C 63 % 72 % 0 % 1005,9 hPa 0,0 l/m 1,6 km/h (1 Bft) O-SO 112 0 min 0,0 UV-I 2,2 C 7,8 C 0,0 km/h (0 Bft)
02.11.2012 16:40 8,6 C 12,5 C 7,2 C 8,2 C 7,5 C 0,0 C 63 % 73 % 0 % 1005,9 hPa 0,0 l/m 1,1 km/h (1 Bft) S-SW 202 0 min 0,0 UV-I 2,0 C 7,5 C 2,1 km/h (1 Bft)
02.11.2012 16:45 8,4 C 12,5 C 7,1 C 8,0 C 7,2 C 0,0 C 64 % 74 % 0 % 1005,9 hPa 0,0 l/m 1,3 km/h (1 Bft) S 180 0 min 0,0 UV-I 2,0 C 7,2 C 2,6 km/h (1 Bft)
02.11.2012 16:50 8,4 C 12,5 C 7,1 C 8,0 C 7,2 C 0,0 C 64 % 75 % 0 % 1005,9 hPa 0,0 l/m 1,4 km/h (1 Bft) S 180 0 min 0,0 UV-I 2,0 C 7,2 C 1,6 km/h (1 Bft)
02.11.2012 16:55 8,1 C 12,5 C 6,6 C 7,7 C 6,8 C 0,0 C 65 % 74 % 0 % 1005,9 hPa 0,0 l/m 0,8 km/h (0 Bft) W-SW 247 0 min 0,0 UV-I 1,9 C 6,8 C 0,0 km/h (0 Bft)
02.11.2012 17:00 8,0 C 12,5 C 6,4 C 7,5 C 6,5 C 0,0 C 65 % 75 % 0 % 1005,7 hPa 0,0 l/m 0,2 km/h (0 Bft) NW 315 0 min 0,0 UV-I 1,8 C 6,5 C 0,0 km/h (0 Bft)
02.11.2012 17:05 7,7 C 12,5 C 6,3 C 7,2 C 6,2 C 0,0 C 66 % 76 % 0 % 1005,7 hPa 0,0 l/m 0,3 km/h (0 Bft) SW 225 0 min 0,0 UV-I 1,8 C 6,2 C 0,0 km/h (0 Bft)
02.11.2012 17:10 7,6 C 12,5 C 6,3 C 7,1 C 6,1 C 0,0 C 66 % 76 % 0 % 1005,7 hPa 0,0 l/m 0,5 km/h (0 Bft) W 270 0 min 0,0 UV-I 1,7 C 6,1 C 0,0 km/h (0 Bft)
02.11.2012 17:15 7,3 C 12,5 C 5,9 C 6,8 C 5,7 C 0,0 C 67 % 76 % 0 % 1005,7 hPa 0,0 l/m 0,2 km/h (0 Bft) S 180 0 min 0,0 UV-I 1,6 C 5,7 C 0,0 km/h (0 Bft)
02.11.2012 17:20 7,2 C 12,5 C 5,8 C 6,6 C 5,5 C 0,0 C 68 % 76 % 0 % 1005,6 hPa 0,0 l/m 0,0 km/h (0 Bft) SO 135 0 min 0,0 UV-I 1,7 C 5,5 C 0,0 km/h (0 Bft)
02.11.2012 17:25 6,9 C 12,5 C 5,4 C 6,3 C 5,2 C 0,0 C 68 % 77 % 0 % 1005,6 hPa 0,0 l/m 0,0 km/h (0 Bft) O-SO 112 0 min 0,0 UV-I 1,4 C 5,2 C 0,0 km/h (0 Bft)
02.11.2012 17:30 6,7 C 12,5 C 5,3 C 6,1 C 5,0 C 0,0 C 68 % 77 % 0 % 1005,6 hPa 0,0 l/m 0,0 km/h (0 Bft) O-SO 112 0 min 0,0 UV-I 1,2 C 5,0 C 0,0 km/h (0 Bft)
02.11.2012 17:35 6,5 C 12,5 C 5,2 C 6,0 C 4,9 C 0,0 C 69 % 78 % 0 % 1005,6 hPa 0,0 l/m 0,0 km/h (0 Bft) O-SO 112 0 min 0,0 UV-I 1,2 C 4,9 C 0,0 km/h (0 Bft)
02.11.2012 17:40 6,4 C 12,5 C 5,1 C 5,9 C 4,8 C 0,0 C 70 % 78 % 0 % 1005,2 hPa 0,0 l/m 0,0 km/h (0 Bft) O-NO 67 0 min 0,0 UV-I 1,3 C 4,8 C 0,0 km/h (0 Bft)
02.11.2012 17:45 6,3 C 12,5 C 4,9 C 5,8 C 4,9 C 0,0 C 70 % 79 % 0 % 1005,2 hPa 0,0 l/m 0,2 km/h (0 Bft) O-NO 67 0 min 0,0 UV-I 1,2 C 4,9 C 0,0 km/h (0 Bft)
02.11.2012 17:50 6,2 C 12,5 C 5,0 C 5,8 C 4,9 C 0,0 C 70 % 79 % 0 % 1005,2 hPa 0,0 l/m 0,2 km/h (0 Bft) O 90 0 min 0,0 UV-I 1,1 C 4,9 C 0,0 km/h (0 Bft)
02.11.2012 17:55 6,1 C 12,5 C 4,9 C 5,6 C 4,7 C 0,0 C 71 % 79 % 0 % 1005,2 hPa 0,0 l/m 0,0 km/h (0 Bft) W 270 0 min 0,0 UV-I 1,2 C 4,7 C 0,0 km/h (0 Bft)
02.11.2012 18:00 6,1 C 12,5 C 4,8 C 5,6 C 4,5 C 0,0 C 71 % 80 % 0 % 1005,1 hPa 0,0 l/m 0,0 km/h (0 Bft) W-SW 247 0 min 0,0 UV-I 1,2 C 4,5 C 0,0 km/h (0 Bft)
02.11.2012 18:05 5,9 C 12,5 C 4,7 C 5,4 C 4,4 C 0,0 C 72 % 80 % 0 % 1005,1 hPa 0,0 l/m 0,2 km/h (0 Bft) W-SW 247 0 min 0,0 UV-I 1,2 C 4,4 C 0,0 km/h (0 Bft)
02.11.2012 18:10 5,7 C 12,5 C 4,7 C 5,3 C 4,4 C 0,0 C 72 % 80 % 0 % 1005,1 hPa 0,0 l/m 0,2 km/h (0 Bft) W 270 0 min 0,0 UV-I 1,1 C 4,4 C 0,0 km/h (0 Bft)
02.11.2012 18:15 5,5 C 12,5 C 4,6 C 5,1 C 4,3 C 0,0 C 72 % 81 % 0 % 1005,1 hPa 0,0 l/m 0,0 km/h (0 Bft) W 270 0 min 0,0 UV-I 0,9 C 4,3 C 0,0 km/h (0 Bft)
02.11.2012 18:20 5,5 C 12,5 C 4,5 C 5,1 C 4,2 C 0,0 C 73 % 81 % 0 % 1005,0 hPa 0,0 l/m 0,0 km/h (0 Bft) W 270 0 min 0,0 UV-I 1,1 C 4,2 C 0,0 km/h (0 Bft)
02.11.2012 18:25 5,3 C 12,5 C 4,4 C 4,9 C 4,2 C 0,0 C 74 % 82 % 0 % 1005,0 hPa 0,0 l/m 0,0 km/h (0 Bft) W-SW 247 0 min 0,0 UV-I 1,0 C 4,2 C 0,0 km/h (0 Bft)
02.11.2012 18:30 5,2 C 12,5 C 4,5 C 4,9 C 4,4 C 0,0 C 74 % 82 % 0 % 1005,0 hPa 0,0 l/m 0,3 km/h (0 Bft) W 270 0 min 0,0 UV-I 1,0 C 4,4 C 0,0 km/h (0 Bft)
02.11.2012 18:35 5,2 C 12,5 C 4,6 C 5,0 C 4,5 C 0,0 C 75 % 83 % 0 % 1005,0 hPa 0,0 l/m 0,6 km/h (0 Bft) SW 225 0 min 0,0 UV-I 1,1 C 4,5 C 0,0 km/h (0 Bft)
02.11.2012 18:46 5,3 C 12,5 C 4,7 C 5,1 C 4,7 C 0,0 C 75 % 83 % 0 % 1005,1 hPa 0,0 l/m 0,6 km/h (0 Bft) N 0 0 min 0,0 UV-I 1,2 C 4,7 C 2,3 km/h (1 Bft)
02.11.2012 18:55 5,5 C 12,5 C 4,8 C 5,3 C 5,0 C 0,0 C 75 % 83 % 0 % 1005,1 hPa 0,0 l/m 0,6 km/h (0 Bft) W-SW 247 0 min 0,0 UV-I 1,4 C 5,0 C 0,0 km/h (0 Bft)
02.11.2012 19:00 5,5 C 12,5 C 4,8 C 5,4 C 5,1 C 0,0 C 75 % 83 % 0 % 1005,1 hPa 0,0 l/m 0,5 km/h (0 Bft) O-NO 67 0 min 0,0 UV-I 1,4 C 5,1 C 0,0 km/h (0 Bft)
02.11.2012 19:05 5,5 C 12,4 C 4,9 C 5,4 C 5,1 C 0,0 C 75 % 83 % 0 % 1005,1 hPa 0,0 l/m 0,2 km/h (0 Bft) S 180 0 min 0,0 UV-I 1,4 C 5,1 C 0,0 km/h (0 Bft)
02.11.2012 19:10 5,5 C 12,5 C 4,8 C 5,4 C 5,1 C 0,0 C 75 % 83 % 0 % 1005,1 hPa 0,0 l/m 0,2 km/h (0 Bft) S-SO 157 0 min 0,0 UV-I 1,4 C 5,1 C 0,0 km/h (0 Bft)
02.11.2012 19:15 5,5 C 12,5 C 4,8 C 5,4 C 5,1 C 0,0 C 75 % 83 % 0 % 1005,1 hPa 0,0 l/m 0,0 km/h (0 Bft) O-SO 112 0 min 0,0 UV-I 1,4 C 5,1 C 0,0 km/h (0 Bft)
02.11.2012 19:20 5,5 C 12,5 C 4,8 C 5,4 C 5,1 C 0,0 C 75 % 83 % 0 % 1004,7 hPa 0,0 l/m 0,0 km/h (0 Bft) S-SW 202 0 min 0,0 UV-I 1,4 C 5,1 C 0,0 km/h (0 Bft)
02.11.2012 19:25 5,4 C 12,4 C 4,9 C 5,3 C 5,1 C 0,0 C 76 % 83 % 0 % 1004,7 hPa 0,0 l/m 0,0 km/h (0 Bft) O-NO 67 0 min 0,0 UV-I 1,5 C 5,1 C 0,0 km/h (0 Bft)
02.11.2012 19:30 5,5 C 12,5 C 4,9 C 5,5 C 5,4 C 0,0 C 76 % 83 % 0 % 1004,7 hPa 0,0 l/m 0,0 km/h (0 Bft) O-SO 112 0 min 0,0 UV-I 1,6 C 5,4 C 0,0 km/h (0 Bft)
02.11.2012 19:35 5,7 C 12,4 C 5,1 C 5,7 C 5,6 C 0,0 C 76 % 84 % 0 % 1004,7 hPa 0,0 l/m 0,0 km/h (0 Bft) O-SO 112 0 min 0,0 UV-I 1,8 C 5,6 C 0,0 km/h (0 Bft)
02.11.2012 19:40 5,8 C 12,4 C 5,2 C 5,8 C 5,7 C 0,0 C 76 % 84 % 0 % 1004,9 hPa 0,0 l/m 0,0 km/h (0 Bft) O 90 0 min 0,0 UV-I 1,9 C 5,7 C 0,0 km/h (0 Bft)
02.11.2012 19:45 5,9 C 12,4 C 5,2 C 5,9 C 5,9 C 0,0 C 76 % 84 % 0 % 1004,9 hPa 0,0 l/m 0,0 km/h (0 Bft) O-NO 67 0 min 0,0 UV-I 2,0 C 5,9 C 0,0 km/h (0 Bft)
02.11.2012 19:50 5,9 C 12,4 C 5,3 C 5,9 C 5,9 C 0,0 C 76 % 83 % 0 % 1004,9 hPa 0,0 l/m 0,0 km/h (0 Bft) NO 45 0 min 0,0 UV-I 2,0 C 5,9 C 0,0 km/h (0 Bft)
02.11.2012 19:55 6,0 C 12,4 C 5,5 C 6,1 C 6,1 C 0,1 C 76 % 83 % 0 % 1004,9 hPa 0,0 l/m 0,0 km/h (0 Bft) O-NO 67 0 min 0,0 UV-I 2,1 C 6,1 C 0,0 km/h (0 Bft)
02.11.2012 20:00 6,0 C 12,4 C 5,6 C 6,1 C 6,1 C 0,1 C 76 % 83 % 0 % 1004,4 hPa 0,0 l/m 0,0 km/h (0 Bft) O-SO 112 0 min 0,0 UV-I 2,1 C 6,1 C 0,0 km/h (0 Bft)
02.11.2012 20:05 6,0 C 12,4 C 5,6 C 6,2 C 6,2 C 0,2 C 76 % 83 % 0 % 1004,4 hPa 0,0 l/m 0,0 km/h (0 Bft) O-NO 67 0 min 0,0 UV-I 2,1 C 6,2 C 0,0 km/h (0 Bft)
02.11.2012 20:10 6,1 C 12,4 C 5,6 C 6,3 C 6,3 C 0,2 C 76 % 83 % 0 % 1004,4 hPa 0,0 l/m 0,0 km/h (0 Bft) O-NO 67 0 min 0,0 UV-I 2,2 C 6,3 C 0,0 km/h (0 Bft)
02.11.2012 20:15 6,3 C 12,4 C 5,8 C 6,4 C 6,4 C 0,1 C 76 % 83 % 0 % 1004,4 hPa 0,0 l/m 0,0 km/h (0 Bft) S 180 0 min 0,0 UV-I 2,4 C 6,4 C 0,0 km/h (0 Bft)
02.11.2012 20:20 6,2 C 12,4 C 5,8 C 6,4 C 6,4 C 0,2 C 76 % 83 % 0 % 1003,9 hPa 0,0 l/m 0,2 km/h (0 Bft) W-SW 247 0 min 0,0 UV-I 2,3 C 6,4 C 0,0 km/h (0 Bft)
02.11.2012 20:25 6,3 C 12,4 C 5,9 C 6,5 C 6,5 C 0,2 C 76 % 83 % 0 % 1003,9 hPa 0,0 l/m 0,2 km/h (0 Bft) N-NO 22 0 min 0,0 UV-I 2,4 C 6,5 C 0,0 km/h (0 Bft)
02.11.2012 20:30 6,4 C 12,4 C 6,0 C 6,5 C 6,5 C 0,1 C 76 % 83 % 0 % 1003,9 hPa 0,0 l/m 0,2 km/h (0 Bft) N-NO 22 0 min 0,0 UV-I 2,5 C 6,5 C 1,8 km/h (1 Bft)
02.11.2012 20:35 6,4 C 12,4 C 6,1 C 6,7 C 6,7 C 0,3 C 76 % 83 % 0 % 1003,9 hPa 0,0 l/m 0,2 km/h (0 Bft) O-NO 67 0 min 0,0 UV-I 2,5 C 6,7 C 0,0 km/h (0 Bft)
02.11.2012 20:40 6,6 C 12,4 C 6,1 C 6,8 C 6,8 C 0,2 C 76 % 83 % 0 % 1003,9 hPa 0,0 l/m 0,2 km/h (0 Bft) O 90 0 min 0,0 UV-I 2,7 C 6,8 C 0,0 km/h (0 Bft)
02.11.2012 20:45 6,7 C 12,4 C 6,3 C 7,0 C 7,0 C 0,3 C 75 % 83 % 0 % 1003,9 hPa 0,0 l/m 0,0 km/h (0 Bft) O 90 0 min 0,0 UV-I 2,6 C 7,0 C 0,0 km/h (0 Bft)
02.11.2012 20:50 6,9 C 12,4 C 6,2 C 6,9 C 6,9 C 0,0 C 75 % 83 % 0 % 1003,9 hPa 0,0 l/m 0,0 km/h (0 Bft) O-NO 67 0 min 0,0 UV-I 2,8 C 6,9 C 0,0 km/h (0 Bft)
02.11.2012 20:55 6,9 C 12,4 C 6,4 C 7,1 C 7,1 C 0,2 C 75 % 82 % 0 % 1003,9 hPa 0,0 l/m 0,0 km/h (0 Bft) O-SO 112 0 min 0,0 UV-I 2,8 C 7,1 C 0,0 km/h (0 Bft)
02.11.2012 21:00 6,9 C 12,4 C 6,5 C 7,2 C 7,2 C 0,3 C 75 % 82 % 0 % 1003,9 hPa 0,0 l/m 0,0 km/h (0 Bft) O-SO 112 0 min 0,0 UV-I 2,8 C 7,2 C 1,6 km/h (1 Bft)
02.11.2012 21:05 7,1 C 12,4 C 6,7 C 7,4 C 7,4 C 0,3 C 75 % 82 % 0 % 1003,9 hPa 0,0 l/m 0,3 km/h (0 Bft) W-SW 247 0 min 0,0 UV-I 3,0 C 7,4 C 2,6 km/h (1 Bft)
02.11.2012 21:10 7,2 C 12,3 C 6,9 C 7,5 C 7,5 C 0,3 C 74 % 82 % 0 % 1003,9 hPa 0,0 l/m 1,3 km/h (1 Bft) NO 45 0 min 0,0 UV-I 2,9 C 7,5 C 4,2 km/h (1 Bft)
02.11.2012 21:15 7,6 C 12,5 C 6,9 C 7,5 C 7,2 C 0,0 C 75 % 83 % 0 % 1003,9 hPa 0,0 l/m 2,3 km/h (1 Bft) S 180 0 min 0,0 UV-I 3,5 C 7,2 C 3,2 km/h (1 Bft)
02.11.2012 21:20 7,7 C 12,5 C 6,8 C 7,4 C 6,9 C 0,0 C 75 % 84 % 0 % 1004,0 hPa 0,0 l/m 2,1 km/h (1 Bft) S-SW 202 0 min 0,0 UV-I 3,6 C 6,9 C 2,6 km/h (1 Bft)
02.11.2012 21:25 7,7 C 12,6 C 6,7 C 7,4 C 6,7 C 0,0 C 76 % 85 % 0 % 1004,0 hPa 0,0 l/m 1,4 km/h (1 Bft) N 360 0 min 0,0 UV-I 3,7 C 6,7 C 0,0 km/h (0 Bft)
02.11.2012 21:30 7,7 C 12,6 C 6,4 C 7,3 C 6,5 C 0,0 C 77 % 86 % 0 % 1004,0 hPa 0,0 l/m 1,0 km/h (0 Bft) W-SW 247 0 min 0,0 UV-I 3,9 C 6,5 C 0,0 km/h (0 Bft)
02.11.2012 21:35 7,6 C 12,7 C 6,3 C 7,2 C 6,4 C 0,0 C 78 % 87 % 0 % 1004,0 hPa 0,0 l/m 0,5 km/h (0 Bft) O-NO 67 0 min 0,0 UV-I 4,0 C 6,4 C 0,0 km/h (0 Bft)
02.11.2012 21:40 7,6 C 12,7 C 6,1 C 7,2 C 6,3 C 0,0 C 78 % 88 % 0 % 1004,2 hPa 0,0 l/m 0,3 km/h (0 Bft) O 90 0 min 0,0 UV-I 4,0 C 6,3 C 1,6 km/h (1 Bft)
02.11.2012 21:45 7,4 C 12,8 C 6,1 C 7,0 C 6,2 C 0,0 C 79 % 90 % 0 % 1004,2 hPa 0,7 l/m 0,5 km/h (0 Bft) O-NO 67 0 min 0,0 UV-I 4,0 C 6,2 C 0,0 km/h (0 Bft)
02.11.2012 21:50 7,2 C 12,8 C 6,1 C 6,9 C 6,2 C 0,0 C 79 % 90 % 0 % 1004,2 hPa 0,0 l/m 0,2 km/h (0 Bft) O 90 0 min 0,0 UV-I 3,8 C 6,2 C 0,0 km/h (0 Bft)
02.11.2012 21:55 6,9 C 12,8 C 6,0 C 6,6 C 6,1 C 0,0 C 80 % 91 % 0 % 1004,2 hPa 0,0 l/m 0,0 km/h (0 Bft) O 90 0 min 0,0 UV-I 3,7 C 6,1 C 0,0 km/h (0 Bft)
02.11.2012 22:00 6,7 C 12,8 C 6,1 C 6,5 C 6,1 C 0,0 C 81 % 92 % 0 % 1004,0 hPa 0,0 l/m 0,0 km/h (0 Bft) O 90 0 min 0,0 UV-I 3,7 C 6,1 C 0,0 km/h (0 Bft)
02.11.2012 22:05 6,5 C 12,8 C 6,1 C 6,3 C 6,0 C 0,0 C 81 % 92 % 0 % 1004,0 hPa 0,0 l/m 0,0 km/h (0 Bft) O-SO 112 0 min 0,0 UV-I 3,5 C 6,0 C 0,0 km/h (0 Bft)
02.11.2012 22:10 6,3 C 12,8 C 6,0 C 6,2 C 5,9 C 0,0 C 82 % 92 % 0 % 1004,0 hPa 0,0 l/m 0,0 km/h (0 Bft) O-SO 112 0 min 0,0 UV-I 3,5 C 5,9 C 0,0 km/h (0 Bft)
02.11.2012 22:15 6,1 C 12,8 C 6,0 C 6,0 C 5,9 C 0,0 C 82 % 92 % 0 % 1004,0 hPa 0,0 l/m 0,2 km/h (0 Bft) O 90 0 min 0,0 UV-I 3,3 C 5,9 C 1,8 km/h (1 Bft)
02.11.2012 22:20 6,1 C 12,8 C 6,0 C 6,0 C 5,9 C 0,0 C 82 % 92 % 0 % 1003,4 hPa 0,0 l/m 0,2 km/h (0 Bft) O-SO 112 0 min 0,0 UV-I 3,3 C 5,9 C 0,0 km/h (0 Bft)
02.11.2012 22:25 5,9 C 12,7 C 6,0 C 5,9 C 5,9 C 0,0 C 83 % 93 % 0 % 1003,4 hPa 0,0 l/m 0,6 km/h (0 Bft) N-NO 22 0 min 0,0 UV-I 3,2 C 5,9 C 2,4 km/h (1 Bft)
02.11.2012 22:30 5,9 C 12,7 C 6,0 C 5,9 C 5,9 C 0,0 C 83 % 93 % 0 % 1003,4 hPa 0,0 l/m 1,0 km/h (0 Bft) W-SW 247 0 min 0,0 UV-I 3,2 C 5,9 C 4,0 km/h (1 Bft)
02.11.2012 22:35 6,0 C 12,6 C 6,1 C 6,0 C 5,9 C 0,0 C 83 % 93 % 0 % 1003,4 hPa 0,0 l/m 1,1 km/h (1 Bft) S-SW 202 0 min 0,0 UV-I 3,3 C 5,9 C 3,2 km/h (1 Bft)
02.11.2012 22:40 6,1 C 12,7 C 6,0 C 6,1 C 6,0 C 0,0 C 82 % 93 % 0 % 1003,3 hPa 0,0 l/m 1,3 km/h (1 Bft) N-NW 337 0 min 0,0 UV-I 3,3 C 6,0 C 0,0 km/h (0 Bft)
02.11.2012 22:45 6,2 C 12,6 C 6,0 C 6,1 C 5,9 C 0,0 C 82 % 93 % 0 % 1003,3 hPa 0,0 l/m 1,6 km/h (1 Bft) W-NW 292 0 min 0,0 UV-I 3,4 C 5,9 C 2,7 km/h (1 Bft)
02.11.2012 22:50 6,3 C 12,6 C 5,9 C 6,1 C 5,8 C 0,0 C 82 % 92 % 0 % 1003,3 hPa 0,0 l/m 2,1 km/h (1 Bft) W-SW 247 0 min 0,0 UV-I 3,5 C 5,8 C 5,5 km/h (1 Bft)
02.11.2012 22:55 6,3 C 12,6 C 5,8 C 6,1 C 5,7 C 0,0 C 81 % 92 % 0 % 1003,3 hPa 0,0 l/m 2,6 km/h (1 Bft) N 360 0 min 0,0 UV-I 3,3 C 5,7 C 4,0 km/h (1 Bft)
02.11.2012 23:00 6,3 C 12,5 C 5,9 C 6,1 C 5,7 C 0,0 C 81 % 93 % 0 % 1003,2 hPa 0,0 l/m 2,4 km/h (1 Bft) S-SO 157 0 min 0,0 UV-I 3,3 C 5,7 C 2,6 km/h (1 Bft)
02.11.2012 23:05 6,3 C 12,5 C 5,9 C 6,1 C 5,7 C 0,0 C 81 % 93 % 0 % 1003,2 hPa 0,0 l/m 2,1 km/h (1 Bft) SO 135 0 min 0,0 UV-I 3,3 C 5,7 C 4,3 km/h (1 Bft)
02.11.2012 23:10 6,4 C 12,5 C 5,9 C 6,2 C 5,8 C 0,0 C 81 % 93 % 0 % 1003,2 hPa 0,0 l/m 2,1 km/h (1 Bft) S-SW 202 0 min 0,0 UV-I 3,4 C 5,8 C 5,6 km/h (1 Bft)
02.11.2012 23:15 6,5 C 12,5 C 5,9 C 6,3 C 5,9 C 0,0 C 80 % 93 % 0 % 1003,2 hPa 0,0 l/m 3,1 km/h (1 Bft) S 180 0 min 0,0 UV-I 3,3 C 5,9 C 5,5 km/h (1 Bft)
02.11.2012 23:20 6,6 C 12,5 C 5,9 C 6,3 C 5,7 C 0,0 C 80 % 93 % 0 % 1003,0 hPa 0,0 l/m 3,5 km/h (1 Bft) S 180 0 min 0,0 UV-I 3,4 C 5,7 C 3,5 km/h (1 Bft)
02.11.2012 23:25 6,8 C 12,5 C 5,8 C 6,4 C 5,7 C 0,0 C 79 % 93 % 0 % 1003,0 hPa 0,0 l/m 4,2 km/h (1 Bft) O-SO 112 0 min 0,0 UV-I 3,4 C 5,7 C 6,1 km/h (2 Bft)
02.11.2012 23:30 6,8 C 12,5 C 5,9 C 6,5 C 5,8 C 0,0 C 79 % 93 % 0 % 1003,0 hPa 0,0 l/m 3,7 km/h (1 Bft) S 180 0 min 0,0 UV-I 3,4 C 5,8 C 2,7 km/h (1 Bft)
02.11.2012 23:35 6,8 C 12,4 C 5,7 C 6,5 C 5,9 C 0,0 C 79 % 93 % 0 % 1003,0 hPa 0,0 l/m 2,9 km/h (1 Bft) W-SW 247 0 min 0,0 UV-I 3,4 C 5,9 C 2,1 km/h (1 Bft)
02.11.2012 23:40 6,8 C 12,4 C 5,6 C 6,5 C 5,8 C 0,0 C 79 % 93 % 0 % 1003,2 hPa 0,0 l/m 2,3 km/h (1 Bft) S-SO 157 0 min 0,0 UV-I 3,4 C 5,8 C 6,8 km/h (2 Bft)
02.11.2012 23:45 7,0 C 12,4 C 5,9 C 6,6 C 5,8 C 0,0 C 79 % 93 % 0 % 1003,2 hPa 0,0 l/m 3,7 km/h (1 Bft) S-SO 157 0 min 0,0 UV-I 3,6 C 5,8 C 7,4 km/h (2 Bft)
02.11.2012 23:50 7,1 C 12,4 C 6,0 C 6,6 C 5,5 C 0,0 C 78 % 93 % 0 % 1003,2 hPa 0,0 l/m 4,8 km/h (1 Bft) S 180 0 min 0,0 UV-I 3,5 C 4,7 C 10,3 km/h (2 Bft)
02.11.2012 23:55 7,4 C 12,4 C 6,1 C 6,9 C 5,9 C 0,0 C 78 % 93 % 0 % 1003,2 hPa 0,0 l/m 5,3 km/h (1 Bft) S-SO 157 0 min 0,0 UV-I 3,8 C 5,0 C 8,9 km/h (2 Bft)
_ Min-Zeit 18:30 00:00 18:25 18:25 18:20 00:00 14:05 14:00 00:00 00:41 - 01:55 - - - 00:00 18:15 08:20 00:35
Minimum _ 5,2 C 12,2 C 4,4 C 4,9 C 4,2 C 0,0 C 58 % 66 % 0 % 995,2 hPa - 0,0 km/h (0 Bft) - - - 0,0 UV-I 0,9 C 2,2 C 0,0 km/h (0 Bft)
_ Max-Zeit 13:55 21:45 13:50 15:20 15:20 11:50 03:15 05:10 11:50 16:20 04:15 03:20 - - 15:30 11:00 00:00 15:20 11:25
Maximum _ 10,1 C 12,8 C 10,0 C 12,8 C 12,8 C 3,2 C 84 % 94 % 84 % 1005,9 hPa 0,7 l/m 12,2 km/h
S-SW (2 Bft)
- - 5 min 0,3 UV-I 5,5 C 12,8 C 26,7 km/h
SW (4 Bft)
Durchschnitt _ 7,4 C 12,4 C 6,9 C 7,6 C 7,2 C 0,3 C 74 % 84 % 7 % 1002,2 hPa #1,4 l/m 3,6 km/h (1 Bft) S - #45 min. 0,2 UV-I 3,1 C 6,9 C 5,2 km/h (1 Bft)
2012 www.wetterstation-wechselburg.de